This demonstration page uses our WeatherBlox Daily Observations layout. Learn more.

Left ArrowRight Arrow

Hourly Observations for June 19, 2019

Temp ( °F °C ) Dew Point ( °F °C ) Humidity (%) Winds ( mph kmh ) Pressure ( in mb ) Visibility ( mi km ) Precip ( " mm )
12:08 am 00:08 Mostly Cloudy 57 14 55 13 94 94 NNE 7 11 29.89 1012 10 16 0.00 0.00
12:56 am 00:56 Cloudy 58 14.4 56 13.3 93 93 N 3 6 29.90 1013 10 16 0.00 0.00
1:19 am 01:19 Cloudy 57 14 57 14 100 100 VRB 3 6 29.89 1012 10 16 0.00 0.00
1:26 am 01:26 Cloudy 57 14 57 14 100 100 ENE 6 9 29.88 1012 8 13 0.00 0.00
1:34 am 01:34 Cloudy with Mist and Fog 57 14 57 14 100 100 ENE 6 9 29.87 1012 2 3 0.00 0.00
1:46 am 01:46 Cloudy with Mist and Fog 57 14 57 14 100 100 NE 5 7 29.86 1011 3 5 0.00 0.00
1:56 am 01:56 Cloudy with Mist and Fog 58 14.4 58 14.4 100 100 NNE 6 9 29.87 1011 2 3 0.00 0.00
2:03 am 02:03 Cloudy with Mist and Fog 57 14 57 14 100 100 NNE 6 9 29.86 1011 1 1 0.00 0.00
2:07 am 02:07 Cloudy with Mist and Fog 57 14 57 14 100 100 NE 5 7 29.86 1011 1 2 0.00 0.00
2:41 am 02:41 Cloudy with Mist and Fog 57 14 57 14 100 100 NNE 5 7 29.87 1012 1 2 0.00 0.00
2:53 am 02:53 Cloudy with Mist and Fog 57 14 57 14 100 100 N 3 6 29.86 1011 1 1 0.00 0.00
2:56 am 02:56 Cloudy with Mist and Fog 58 14.4 58 14.4 100 100 NE 3 6 29.86 1011 1 1 0.00 0.00
3:18 am 03:18 Cloudy with Mist and Fog 57 14 57 14 100 100 N 6 9 29.86 1011 1 2 0.00 0.00
3:26 am 03:26 Cloudy with Mist and Fog 57 14 57 14 100 100 NW 5 7 29.86 1011 1 1 0.00 0.00
3:45 am 03:45 Cloudy with Fog 57 14 57 14 100 100 NNW 7 11 29.85 1011 1 1 0.00 0.00
3:56 am 03:56 Cloudy with Fog 58 14.4 58 14.4 100 100 NNW 8 13 29.85 1011 1 1 0.00 0.00
4:25 am 04:25 Cloudy with Mist and Fog 57 14 57 14 100 100 N 7 11 29.84 1011 1 1 0.00 0.00
4:38 am 04:38 Cloudy with Mist and Fog 57 14 57 14 100 100 N 7 11 29.84 1011 1 2 0.00 0.00
4:42 am 04:42 Cloudy with Mist and Fog 57 14 57 14 100 100 NNE 6 9 29.84 1011 3 5 0.00 0.00
4:56 am 04:56 Cloudy with Mist and Fog 58 14.4 58 14.4 100 100 NNE 6 9 29.85 1011 3 4 0.00 0.00
5:06 am 05:06 Cloudy with Mist and Fog 57 14 57 14 100 100 N 5 7 29.84 1011 4 6 0.00 0.00
5:31 am 05:31 Cloudy with Mist and Fog 57 14 57 14 100 100 NNW 5 7 29.84 1011 2 3 0.00 0.00
5:56 am 05:56 Cloudy with Mist and Fog 58 14.4 58 14.4 100 100 NNW 5 7 29.85 1011 1 1 0.00 0.00
6:06 am 06:06 Cloudy with Fog 57 14 57 14 100 100 NW 3 6 29.84 1011 1 1 0.00 0.00
6:22 am 06:22 Cloudy with Mist and Fog 57 14 57 14 100 100 N 5 7 29.84 1011 1 2 0.00 0.00
6:29 am 06:29 Cloudy with Mist and Fog 57 14 57 14 100 100 N 6 9 29.85 1011 1 1 0.00 0.00
6:38 am 06:38 Cloudy with Mist and Fog 57 14 57 14 100 100 N 6 9 29.85 1011 1 2 0.00 0.00
6:43 am 06:43 Cloudy with Mist and Fog 57 14 57 14 100 100 N 6 9 29.85 1011 3 5 0.00 0.00
6:56 am 06:56 Cloudy with Mist and Fog 58 14.4 57 13.9 97 97 N 5 7 29.86 1011 5 8 0.00 0.00
7:11 am 07:11 Cloudy with Mist and Fog 57 14 57 14 100 100 NNW 5 7 29.85 1011 2 2 0.00 0.00
7:16 am 07:16 Cloudy with Mist and Fog 57 14 57 14 100 100 NNW 5 7 29.85 1011 1 1 0.00 0.00
7:26 am 07:26 Cloudy with Fog 57 14 57 14 100 100 NNW 6 9 29.85 1011 1 1 0.00 0.00
7:54 am 07:54 Cloudy with Fog 57 14 57 14 100 100 NNW 5 7 29.85 1011 0 0 0.00 0.00
7:56 am 07:56 Cloudy with Fog 58 14.4 57 13.9 97 97 NNW 5 7 29.86 1011 1 1 0.00 0.00
8:36 am 08:36 Cloudy with Mist and Fog 57 14 57 14 100 100 NNE 3 6 29.85 1011 1 2 0.00 0.00
8:45 am 08:45 Cloudy with Mist and Fog 57 14 57 14 100 100 NE 3 6 29.84 1011 2 2 0.00 0.00
8:56 am 08:56 Cloudy with Mist and Fog 58 14.4 58 14.4 100 100 Calm 29.86 1011 3 5 0.00 0.00
9:12 am 09:12 Cloudy with Mist and Fog 57 14 57 14 100 100 NNE 3 6 29.85 1011 3 4 0.00 0.00
9:21 am 09:21 Cloudy with Mist and Fog 57 14 57 14 100 100 Calm 29.85 1011 4 6 0.00 0.00
9:56 am 09:56 Cloudy 59 15 58 14.4 96 96 Calm 29.85 1011 7 11 0.00 0.00
10:47 am 10:47 Cloudy 61 16 57 14 88 88 Calm 29.82 1010 10 16 0.00 0.00
10:56 am 10:56 Cloudy 61 16.1 59 15 93 93 Calm 29.84 1011 10 16 0.00 0.03
11:08 am 11:08 Cloudy 61 16 59 15 94 94 Calm 29.82 1010 10 16 0.00 0.00
11:56 am 11:56 Cloudy 63 17.2 59 15 87 87 Calm 29.83 1010 10 16 0.00 0.00
12:26 pm 12:26 Cloudy 64 18 61 16 88 88 VRB 3 6 29.79 1009 10 16 0.00 0.00
12:45 pm 12:45 Cloudy 64 18 61 16 88 88 SSW 5 7 29.79 1009 10 16 0.00 0.00
12:56 pm 12:56 Cloudy 65 18.3 60 15.6 84 84 S 5 7 29.82 1010 10 16 0.00 0.00
1:30 pm 13:30 Cloudy 64 18 61 16 88 88 SSW 5 7 29.78 1009 10 16 0.00 0.00
1:53 pm 13:53 Cloudy 66 19 61 16 83 83 VRB 5 7 29.76 1008 10 16 0.00 0.00
1:56 pm 13:56 Cloudy 67 19.4 61 16.1 81 81 S 5 7 29.80 1009 10 16 0.00 0.00
2:27 pm 14:27 Cloudy 70 21 63 17 78 78 SSW 6 9 29.74 1007 10 16 0.00 0.00
2:56 pm 14:56 Mostly Cloudy 69 20.6 61 16.1 76 76 S 6 9 29.77 1008 10 16 0.00 0.00
3:33 pm 15:33 Mostly Cloudy 72 22 61 16 69 69 VRB 5 7 29.70 1006 10 16 0.00 0.00
3:42 pm 15:42 Cloudy 72 22 61 16 69 69 VRB 5 7 29.70 1006 10 16 0.00 0.00
3:56 pm 15:56 Cloudy 72 22.2 60 15.6 66 66 SW 5 7 29.75 1007 10 16 0.00 0.00
4:04 pm 16:04 Cloudy 72 22 61 16 69 69 Calm 29.69 1005 10 16 0.00 0.00
4:56 pm 16:56 Mostly Cloudy 71 21.7 61 16.1 71 71 S 6 9 29.73 1007 10 16 0.00 0.00
5:56 pm 17:56 Mostly Sunny 72 22.2 61 16.1 68 68 SSW 7 11 29.72 1006 10 16 0.00 0.00
6:56 pm 18:56 Mostly Cloudy 73 22.8 60 15.6 64 64 SW 6 9 29.71 1006 10 16 0.00 0.00
7:56 pm 19:56 Sunny 73 22.8 61 16.1 66 66 SSE 6 9 29.70 1006 10 16 0.00 0.00
8:56 pm 20:56 Sunny 69 20.6 62 16.7 78 78 SSE 7 11 29.71 1006 10 16 0.00 0.00
9:56 pm 21:56 Clear 67 19.4 63 17.2 87 87 SE 8 13 29.71 1006 10 16 0.00 0.00
10:56 pm 22:56 Clear 65 18.3 62 16.7 90 90 SSE 8 13 29.71 1006 10 16 0.00 0.00
11:56 pm 23:56 Clear 63 17.2 61 16.1 93 93 S 7 11 29.70 1006 10 16 0.00 0.00

Powered by AerisWeather